Location: Newark
(39.0622°N, 106.5590°E)
Time: 00:35:13
(UTC+00:00)

Vanguard 2 Rocket - Pass Details

Date: 27 January 2020
Orbit: 553 x 3327 km, 32.9° (Epoch: 27 February)

Event Time Altitude Azimuth Distance (km) Brightness Sun altitude
Rises 01:31:40 0° 268° (W) 3,399 9.4 13.6°
Reaches altitude 10° 01:33:54 10° 260° (W) 2,694 9.0 13.9°
Maximum altitude 01:39:55 38° 193° (SSW) 1,929 9.1 14.8°
Drops below altitude 10° 01:49:53 10° 131° (SE) 4,476 13.4 16.3°
Sets 01:54:47 0° 125° (SE) 5,959 12.8 17.0°
